Location: Recife
(8.0585°S, 34.8848°W)
Time: 20:40:45
(UTC-03:00)

A-11 Canister half - Pass Details

Date: 23 April 2026
Orbit: 1515 x 1684 km, 47.2° (Epoch: 16 May)

Event Time Altitude Azimuth Distance (km) Brightness Sun altitude
Rises 22:19:23 0° 214° (SW) 4,806 - -74.9°
Reaches altitude 10° 22:22:37 10° 210° (SSW) 3,795 - -75.6°
Maximum altitude 22:32:01 59° 132° (SE) 1,748 - -77.8°
Drops below altitude 10° 22:41:05 10° 54° (NE) 3,677 - -79.8°
Sets 22:44:09 0° 50° (NE) 4,648 - -80.5°
